This demonstration page uses our WeatherBlox Daily Observations layout. Learn more.

Left ArrowRight Arrow

44.8408, -93.29828

Hourly Observations for February 28, 2022

Temp ( °F °C ) Dew Point ( °F °C ) Humidity (%) Winds ( mph kmh ) Pressure ( in mb ) Visibility ( mi km ) Precip ( " mm )
12:53 am 00:53 Mostly Cloudy 26 -3.3 18 -7.8 71 71 SE 8 13 30.08 1019 10 16 0.00 0.00
1:53 am 01:53 Mostly Cloudy 25 -3.9 18 -7.8 75 75 SE 7 11 30.06 1018 10 16 0.00 0.00
2:53 am 02:53 Mostly Clear 25 -3.9 19 -7.2 78 78 SSE 3 6 30.04 1017 10 16 0.00 0.00
3:53 am 03:53 Mostly Clear 24 -4.4 18 -7.8 77 77 Calm 30.04 1017 10 16 0.00 0.00
4:53 am 04:53 Mostly Cloudy 22 -5.6 18 -7.8 85 85 Calm 30.04 1017 10 16 0.00 0.00
5:53 am 05:53 Mostly Cloudy 23 -5 18 -7.8 81 81 WSW 3 6 30.04 1017 9 14 0.00 0.00
6:53 am 06:53 Mostly Sunny 23 -5 19 -7.2 85 85 W 3 6 30.04 1017 8 13 0.00 0.00
7:53 am 07:53 Mostly Sunny 24 -4.4 19 -7.2 81 81 WSW 6 9 30.05 1018 8 13 0.00 0.00
8:53 am 08:53 Partly Cloudy 25 -3.9 19 -7.2 78 78 SSW 3 6 30.03 1017 8 13 0.00 0.00
9:53 am 09:53 Mostly Sunny 29 -1.7 22 -5.6 75 75 WSW 5 7 30.03 1017 8 13 0.00 0.00
10:53 am 10:53 Mostly Sunny 37 2.8 23 -5 57 57 SSW 3 6 30.01 1016 8 13 0.00 0.00
11:53 am 11:53 Mostly Sunny 40 4.4 22 -5.6 49 49 SW 6 9 30.00 1016 10 16 0.00 0.00
12:53 pm 12:53 Mostly Sunny 41 5 22 -5.6 47 47 undefined N/A 29.96 1014 10 16 0.00 0.00
1:53 pm 13:53 Mostly Sunny 41 5 24 -4.4 51 51 SW 8 13 29.92 1013 10 16 0.00 0.00
2:53 pm 14:53 Mostly Sunny 43 6.1 25 -3.9 49 49 WSW 9 15 29.91 1013 10 16 0.00 0.00
3:53 pm 15:53 Partly Cloudy 43 6.1 27 -2.8 53 53 W 8 13 29.91 1013 10 16 0.00 0.00
4:53 pm 16:53 Mostly Cloudy 43 6.1 29 -1.7 58 58 W 9 15 29.91 1013 10 16 0.00 0.00
5:53 pm 17:53 Mostly Cloudy 41 5 29 -1.7 62 62 W 8 13 29.92 1013 10 16 0.00 0.00
6:53 pm 18:53 Mostly Cloudy 40 4.4 30 -1.1 68 68 WSW 6 9 29.91 1013 10 16 0.00 0.00
7:53 pm 19:53 Partly Cloudy 40 4.4 30 -1.1 68 68 W 8 13 29.91 1013 10 16 0.00 0.00
8:53 pm 20:53 Partly Cloudy 39 3.9 30 -1.1 70 70 W 9 15 29.91 1013 10 16 0.00 0.00
9:53 pm 21:53 Partly Cloudy 38 3.3 29 -1.7 70 70 W 9 15 29.90 1013 10 16 0.00 0.00
10:53 pm 22:53 Mostly Cloudy 38 3.3 29 -1.7 70 70 WNW 12 19 29.91 1013 10 16 0.00 0.00
11:53 pm 23:53 Mostly Cloudy 37 2.8 28 -2.2 70 70 NW 10 17 29.91 1013 10 16 0.00 0.00

Powered by AerisWeather